星链-5616 (STARLINK-5616 )

导读 | 豆包AI

STARLINK-5616是美国太空探索技术公司(SpaceX)星链(Starlink)互联网卫星项目的组成卫星,于2023年1月31日发射,属于星链项目的第二代卫星,加入了近地轨道的卫星星座组网,旨在为全球范围内用户提供低延迟、高速率的宽带互联网接入服务。

Basic Information
目录编号:
55417
目录名称:
STARLINK-5616
国际标识:
2023-014AC
轨道中心:
EARTH
卫星名称:
星链-5616
卫星全名:
星链-5616 (STARLINK-5616 )
卫星状态:
已陨落 最后检测时间 2025-04-23
发射日期:
2023-01-31 UTC
国别 :
美国 (US)
星等 :
--
Orbit Information
数据来源 国际轨道数据
星历时间: 2025-04-23T07:10:58+0800
轨道信息已过期326天
半长轴: 6527.317km
偏心率: 0.001139
轨道倾角: 69.976°
近地点辐角 235.428°
升交点赤经 158.623°
平近点角 190.154°
近地点: 141.747km
远地点: 156.617km
周期: 87.471分钟
每日圈数: 16.46269
Detailed Information
固有亮度:
5
最大亮度:
2.5
卫星平台:
Starlink v1.5
覆盖范围:
全球
运营商:
太空探索技术公司
运营商所在国:
美国
制造商(研发单位):
太空探索技术公司
制造商所在国:
美国
使用方式:
暂无
Satellite Introduction
星链(Starlink)计划是由太空探索技术公司(SpaceX)提出的一个巨型低轨卫星互联网星座项目,计划在2019年至2024年间在太空搭建由约1.2万颗卫星组成的“星链”网络,其中1584颗将部署在地球上空550千米处的近地轨道,并从2020年开始工作。该卫星仍在工作。